Regional Weather Roundup
Issued by NWS

Home | Current Version | Previous Version | Text Only | Print | Product List | Glossary Off
Versions: 1 2 3 4 5 6 7 8 9 10 11 12 13 14 15 16 17 18 19 20 21 22 23 24 25 26 27 28 29 30 31 32 33 34 35 36 37 38 39 40 41 42 43 44 45 46 47 48 49 50

118
ASUS44 KLIX 272001
RWRLA
LOUISIANA WEATHER ROUNDUP
NATIONAL WEATHER SERVICE NEW ORLEANS LA
200 PM CST THU NOV 27 2014

NOTE: "FAIR" INDICATES FEW OR NO CLOUDS BELOW 12,000 FEET WITH NO
      SIGNIFICANT WEATHER AND/OR OBSTRUCTIONS TO VISIBILITY.
      SKY/WX - SKY CONDITION AND SIGNIFICANT WEATHER.
      TMP - AIR TEMPERATURE.    DP   - DEWPOINT TEMPERATURE.
      RH  - RELATIVE HUMIDITY.  PRES - PRESSURE.
      HX  - HEAT INDEX.         WCI  - WIND CHILL INDEX.

*  THESE STATIONS ARE NOT NWS OR FAA STATIONS AND ARE NOT UNDER
   NWS QUALITY CONTROL.

LAZ040-048-061>063-065-066-069-272100-
SOUTHEAST LOUISIANA

CITY           SKY/WX    TMP DP  RH WIND       PRES   REMARKS
N.O. AUDUBON   NOT AVBL
N.O. INTL ARPT MOSUNNY   60  32  34 N9        30.38F
N.O. LAKEFRONT SUNNY     60  35  39 NW12      30.39F
N.O. DOWNTOWN* FAIR      57  30  35 N7        30.39S
SLIDELL        SUNNY     62  28  27 N10       30.37F
BATON ROUGE    SUNNY     61  29  29 VRB6      30.39F
BOOTHVILLE     SUNNY     57  39  51 N8        30.37F
BELLE CHASSE   SUNNY     61  30  31 N8        30.37F
BOGALUSA*        N/A     60  28  28 N10       30.40F
NEW ROADS*     NOT AVBL
GONZALES*      NOT AVBL
HAMMOND*       NOT AVBL
HOUMA*         SUNNY     63  32  31 N10       30.36F
PORT FOURCHON* CLEAR     61  36  39 N14       30.39F

$$

LAZ041-044-053-054-272100-
SOUTHWEST LOUISIANA

CITY           SKY/WX    TMP DP  RH WIND       PRES   REMARKS
LAKE CHARLES   SUNNY     64  28  25 N8        30.41F
LAFAYETTE      SUNNY     61  30  31 N13       30.40F
PATTERSON      SUNNY     64  28  25 N13         N/A
SALT POINT       N/A     68  32  26 VRB6      30.36F
NEW IBERIA     SUNNY     63  29  27 N12       30.40F
CHENAULT AIRPK SUNNY     63  30  29 N12       30.41F

$$

LAZ027-028-272100-
CENTRAL LOUISIANA

CITY           SKY/WX    TMP DP  RH WIND       PRES   REMARKS
FORT POLK      SUNNY     58  27  30 NE10      30.42F
ALEXANDRIA INT SUNNY     59  28  30 NE9       30.42F
ALEXANDRIA     SUNNY     58  29  33 NE8       30.44F

$$

LAZ001-002-272100-
NORTHWEST LOUISIANA

CITY           SKY/WX    TMP DP  RH WIND       PRES   REMARKS
SHREVEPORT     SUNNY     56  26  31 MISG      30.45F
BARKSDALE AFB  SUNNY     56  24  29 VRB6      30.46F
DTN SHREVEPORT SUNNY     55  24  30 NE6       30.46F

$$

LAZ014-016-272100-
NORTHEAST LOUISIANA

CITY           SKY/WX    TMP DP  RH WIND       PRES   REMARKS
MONROE         SUNNY     53  30  41 N8        30.48F
TALLULAH       SUNNY     50  31  48 N10       30.48S

$$




USA.gov is the U.S. government's official web portal to all federal, state and local government web resources and services.